Elizabethton, TN

10:10 PM EDT on March 22, 2017 (GMT -0400)
Elizabethton

Weather History for K0A9 - October, 2012

Change the Weather History Date:

Saturday, October 13, 2012

  Actual Average (KTRI) Record (KTRI)
Temperature  
Mean Temperature 55 °F -  
Max Temperature 69 °F 71 °F 86 °F (1954)
Min Temperature 41 °F 44 °F 28 °F (1988)
Degree Days  
Heating Degree Days 10    
Growing Degree Days 5 (Base 50)    
Moisture  
Dew Point 43 °F    
Average Humidity 68    
Maximum Humidity 93    
Minimum Humidity 43    
Precipitation  
Precipitation 0.00 in - - ()
Sea Level Pressure  
Sea Level Pressure 30.33 in    
Wind  
Wind Speed 5 mph (East)    
Max Wind Speed 8 mph    
Max Gust Speed -    
Visibility 8 miles    
Events      
Averages and records for this station are not official NWS values.
T = Trace of Precipitation, MM = Missing Value Source: NWS Daily Summary

Daily Weather History Graph

Daily Weather History Graph

Search for Another Location

Airport or City:

Trip Planner

Search our weather history database for the weather conditions in past years. The results will help you decide how hot, cold, wet, or windy it might be!

Date:

Astronomy

Oct. 13, 2012 Rise Set
Actual Time 7:34 AM EDT 6:54 PM EDT
Civil Twilight 7:08 AM EDT 7:20 PM EDT
Nautical Twilight 6:38 AM EDT 7:50 PM EDT
Astronomical Twilight 6:08 AM EDT 8:20 PM EDT
Moon 5:25 AM EDT (10/13) 5:35 PM EDT (10/13)
Length of Visible Light 12h 11m
Length of Day
11h 20m
Waning Crescent, 5% of the Moon is Illuminated
Oct 13
Waning Crescent
Oct 15
New
Oct 21
First Quarter
Oct 29
Full
Nov 6
Last Quarter

Hourly Weather History & Observations

Time (EDT) Temp. Windchill Dew Point Humidity Pressure Visibility Wind Dir Wind Speed Gust Speed Precip Events Conditions
12:55 AM 44.6 °F 40.7 °F 42.8 °F 93% 30.34 in 10.0 mi ENE 6.9 mph - N/A   Clear
1:55 AM 42.8 °F - 39.2 °F 87% 30.34 in 10.0 mi Calm Calm - N/A   Clear
2:15 AM 42.8 °F - 41.0 °F 93% 30.34 in 10.0 mi Calm Calm - N/A   Clear
2:35 AM 41.0 °F - 39.2 °F 93% 30.35 in 10.0 mi Calm Calm - N/A   Clear
2:55 AM 41.0 °F - 39.2 °F 93% 30.34 in 10.0 mi Calm Calm - N/A   Clear
3:15 AM 42.8 °F 41.1 °F 41.0 °F 93% 30.33 in 10.0 mi ENE 3.5 mph - N/A   Clear
3:35 AM 42.8 °F - 41.0 °F 93% 30.33 in 10.0 mi Calm Calm - N/A   Clear
3:55 AM 42.8 °F 40.1 °F 39.2 °F 87% 30.33 in 10.0 mi ENE 4.6 mph - N/A   Clear
4:15 AM 44.6 °F 41.4 °F 41.0 °F 87% 30.33 in 10.0 mi ENE 5.8 mph - N/A   Clear
4:35 AM 44.6 °F 41.4 °F 41.0 °F 87% 30.33 in 10.0 mi ENE 5.8 mph - N/A   Clear
4:55 AM 44.6 °F 43.1 °F 39.2 °F 81% 30.33 in 10.0 mi ENE 3.5 mph - N/A   Clear
5:15 AM 44.6 °F 43.1 °F 39.2 °F 81% 30.34 in 10.0 mi ENE 3.5 mph - N/A   Clear
5:35 AM 44.6 °F 41.4 °F 39.2 °F 81% 30.35 in 10.0 mi ENE 5.8 mph - N/A   Clear
5:55 AM 46.4 °F 44.3 °F 39.2 °F 76% 30.35 in 10.0 mi ENE 4.6 mph - N/A   Clear
6:15 AM 46.4 °F 43.5 °F 39.2 °F 76% 30.36 in 10.0 mi East 5.8 mph - N/A   Clear
6:35 AM 46.4 °F 43.5 °F 39.2 °F 76% 30.37 in 10.0 mi East 5.8 mph - N/A   Clear
6:55 AM 46.4 °F 43.5 °F 39.2 °F 76% 30.38 in 10.0 mi East 5.8 mph - N/A   Clear
7:15 AM 46.4 °F 42.9 °F 39.2 °F 76% 30.38 in 10.0 mi East 6.9 mph - N/A   Clear
7:35 AM 46.4 °F 42.9 °F 39.2 °F 76% 30.38 in 10.0 mi East 6.9 mph - N/A   Clear
7:55 AM 44.6 °F 40.7 °F 39.2 °F 81% 30.38 in 10.0 mi East 6.9 mph - N/A   Clear
8:15 AM 46.4 °F 44.3 °F 41.0 °F 81% 30.39 in 10.0 mi ENE 4.6 mph - N/A   Clear
8:35 AM 48.2 °F - 42.8 °F 82% 30.39 in 10.0 mi East 6.9 mph - N/A   Clear
8:55 AM 50.0 °F - 42.8 °F 76% 30.39 in 10.0 mi ENE 5.8 mph - N/A   Clear
9:15 AM 51.8 °F - 41.0 °F 67% 30.40 in 10.0 mi ESE 8.1 mph - N/A   Clear
9:55 AM 53.6 °F - 41.0 °F 62% 30.40 in 10.0 mi East 8.1 mph - N/A   Clear
10:35 AM 55.4 °F - 41.0 °F 58% 30.40 in 10.0 mi ENE 8.1 mph - N/A   Clear
10:55 AM 57.2 °F - 42.8 °F 59% 30.40 in 10.0 mi East 6.9 mph - N/A   Clear
11:15 AM 57.2 °F - 42.8 °F 59% 30.40 in 10.0 mi East 8.1 mph - N/A   Clear
11:35 AM 60.8 °F - 42.8 °F 52% 30.39 in 10.0 mi NE 8.1 mph - N/A   Clear
11:55 AM 60.8 °F - 42.8 °F 52% 30.38 in 10.0 mi East 6.9 mph - N/A   Clear
12:15 PM 60.8 °F - 42.8 °F 52% 30.37 in 10.0 mi East 8.1 mph - N/A   Clear
12:35 PM 62.6 °F - 44.6 °F 52% 30.36 in 10.0 mi ESE 8.1 mph - N/A   Clear
12:55 PM 62.6 °F - 44.6 °F 52% 30.35 in 10.0 mi East 8.1 mph - N/A   Clear
1:35 PM 64.4 °F - 44.6 °F 49% 30.33 in 10.0 mi East 6.9 mph - N/A   Clear
1:55 PM 66.2 °F - 44.6 °F 46% 30.32 in 10.0 mi ESE 5.8 mph - N/A   Clear
2:15 PM 66.2 °F - 46.4 °F 49% 30.31 in 10.0 mi East 4.6 mph - N/A   Clear
2:35 PM 68.0 °F - 46.4 °F 46% 30.30 in 10.0 mi Variable 5.8 mph - N/A   Clear
2:55 PM 68.0 °F - 46.4 °F 46% 30.29 in 10.0 mi ENE 4.6 mph - N/A   Clear
3:15 PM 69.8 °F - 48.2 °F 46% 30.29 in 10.0 mi SE 4.6 mph - N/A   Clear
3:35 PM 69.8 °F - 48.2 °F 46% 30.28 in 3.0 mi East 4.6 mph - N/A   Haze
4:35 PM 69.8 °F - 48.2 °F 46% 30.26 in 0.8 mi SE 5.8 mph - N/A   Haze
4:55 PM 69.8 °F - 46.4 °F 43% 30.25 in 1.0 mi ESE 4.6 mph - N/A   Haze
5:15 PM 69.8 °F - 48.2 °F 46% 30.25 in 1.0 mi Variable 3.5 mph - N/A   Haze
5:35 PM 69.8 °F - 48.2 °F 46% 30.25 in 1.0 mi ESE 4.6 mph - N/A   Haze
5:55 PM 68.0 °F - 48.2 °F 49% 30.26 in 0.8 mi SE 4.6 mph - N/A   Haze
6:15 PM 66.2 °F - 46.4 °F 49% 30.26 in 2.0 mi South 3.5 mph - N/A   Haze
6:35 PM 64.4 °F - 48.2 °F 56% 30.26 in 1.2 mi Calm Calm - N/A   Haze
6:55 PM 60.8 °F - 50.0 °F 68% 30.27 in 3.0 mi Calm Calm - N/A   Haze
7:15 PM 60.8 °F - 50.0 °F 68% 30.27 in 4.0 mi ENE 4.6 mph - N/A   Haze
7:35 PM 57.2 °F - 48.2 °F 72% 30.28 in 2.5 mi East 5.8 mph - N/A   Haze
8:35 PM 55.4 °F - 46.4 °F 72% 30.29 in 1.8 mi East 4.6 mph - N/A   Haze
8:55 PM 55.4 °F - 46.4 °F 72% 30.30 in 2.0 mi East 4.6 mph - N/A   Haze
9:15 PM 55.4 °F - 44.6 °F 67% 30.30 in 3.0 mi East 5.8 mph - N/A   Haze
9:35 PM 53.6 °F - 44.6 °F 72% 30.30 in 3.0 mi ENE 4.6 mph - N/A   Haze
10:15 PM 53.6 °F - 44.6 °F 72% 30.30 in 2.5 mi East 4.6 mph - N/A   Haze
10:35 PM 51.8 °F - 44.6 °F 76% 30.30 in 4.0 mi East 5.8 mph - N/A   Haze
10:55 PM 51.8 °F - 44.6 °F 76% 30.29 in 4.0 mi ENE 5.8 mph - N/A   Haze
11:15 PM 51.8 °F - 44.6 °F 76% 30.30 in 5.0 mi ENE 5.8 mph - N/A   Haze